COSMOS 1275 DEB, 12658

Orbit data source: Space-Track

COSMOS 1275 DEB, 12658 is space debris in LEO originally from a launch on Thu, 04 Jun 1981 UTC launched from the Plesetsk Missile And Space Complex (PKMTR). Debris objects in space refer to the collection of defunct objects orbiting the Earth. Examples of debris include non-operational satellites, rocket bodies, and fragments generated from explosions, collisions, or faulty payload assembly.

Loading next visibility...
Identifier
12658, 1981-053N
Orbit
LEO
Country
Flag of CISCIS
Related business
Manufacturer
Unknown
Mission
Spacecraft
Bus & Motor
Unknown
Mass
Unknown
Launch date (UTC)
1981-06-04 (45 years ago)
Launch vehicle
Unknown
Launch site
Plesetsk Missile And Space Complex (PKMTR)
Object type
Payload
Rocket body
Debris
Shape & HBR
Unknown shape, 0.2 m
Radar Cross Section
Small (<0.1 m²)

Expand to show TLE details & history
Last TLE update: 8 hours ago

TLE from 8 hours ago
0 COSMOS 1275 DEB
1 12658U 81053N   26034.53031906  .00003812  00000-0  14811-2 0  9992
2 12658  82.9666 250.3125 0034343 126.9749 256.5784 14.29344037271143
Epoch: 2026-02-03T12:43Z
TLE epoch observation values (Epoch: 2026-02-03T12:43:39.566Z)
Latitude
23.00507°
Longitude
-71.32554°
Altitude
802.572 km
Speed
7.451 km/s
True Right ascension
16h 53m 11s
True Declination
22° 52' 57"
Sunlit
Object was in daylight at epoch
Visualization orbit readout
Latitude
Unknown
Longitude
Unknown
Altitude
Unknown
Speed
Unknown
Apparent Right ascension
Unknown
Apparent Declination
Unknown
Sunlit
N/A
Visualization observer readout
Local Sidereal Time
22:36:27
Azimuth
Unknown
Elevation
Unknown
Doppler factor
Unknown
Orbital elements
Apogee altitude
815.618 km
Perigee altitude
766.376 km
Semi-major axis
7,169.134 km
Eccentricity
0.00343
Inclination
82.9666°
RAAN
250.3125°
Arg. of periapsis
126.9749°
True anomaly
256.19599°
Mean anomaly
256.5784°
Eccentric anomaly
256.38716°
Mean motion
3.57555 °/min
Orbital period
100.68 mins
BSTAR
0.0014811
Loading maneuver chart data...
Computing Atmospheric mass density...

Documentation

Showing up to 5 results
|